STARLINK-2616, 48695

Orbit data source: Space-Track

STARLINK-2616, 48695 is a payload satellite owned by SpaceX/Seattle (US) in LEO that was launched on Wed, 26 May 2021 UTC via an FALCON 9 launch vehicle from the Air Force Eastern Test Range (AFETR). Payload-class satellites include a variety of spacecraft equipped with specific instruments for various scientific and technological missions. These include communications satellites like Starlink; space stations such as the ISS; scientific satellites like the Hubble; Earth observation satellites from companies like Planet Labs, Umbra, and HawkEye 360; GPS; miniature CubeSats for education and research; and military/defense satellites.

Loading next visibility...
Identifier
48695, 2021-044BK
Orbit
LEO
Country
Flag of USUS
Related business
Manufacturer
SpaceX/Seattle
Mission
Operational Commercial Communications
Bus & Motor
STARLINK, Unknown motor
Mass
260 kg wet, ~248 kg dry
Launch date (UTC)
2021-05-26 (5 years ago)
Launch vehicle
FALCON 9
Launch site
Air Force Eastern Test Range (AFETR)
Object type
Payload
Rocket body
Debris
Shape & HBR
Box + 1 Pan, 10.1 m
Radar Cross Section
13.562 m², Large (>1 m²)

Expand to show TLE details & history
Last TLE update: 2 days ago

TLE from 2 days ago
0 STARLINK-2616
1 48695U 21044BK  26171.41697251  .00002445  00000-0  90531-4 0  9992
2 48695  53.1589 319.8853 0001167  68.8899 291.2227 15.31703907280073
Epoch: 2026-06-20T10:00Z
TLE epoch observation values (Epoch: 2026-06-20T10:00:26.424Z)
Latitude
-0.00005°
Longitude
-98.85674°
Altitude
471.339 km
Speed
7.632 km/s
True Right ascension
21h 19m 32s
True Declination
0° 00' 00"
Sunlit
Object was in full shadow at epoch
Visualization orbit readout
Latitude
Unknown
Longitude
Unknown
Altitude
Unknown
Speed
Unknown
Apparent Right ascension
Unknown
Apparent Declination
Unknown
Sunlit
N/A
Visualization observer readout
Local Sidereal Time
21:51:56
Azimuth
Unknown
Elevation
Unknown
Doppler factor
Unknown
Orbital elements
Apogee altitude
471.784 km
Perigee altitude
470.186 km
Semi-major axis
6,849.122 km
Eccentricity
0.00012
Inclination
53.1589°
RAAN
319.8853°
Arg. of periapsis
68.8899°
True anomaly
291.21023°
Mean anomaly
291.2227°
Eccentric anomaly
291.21647°
Mean motion
3.82905 °/min
Orbital period
94.02 mins
BSTAR
0.000090531
Loading maneuver chart data...
Computing Atmospheric mass density...

Documentation

Showing up to 5 results
|